Header for Extended Forecast Station List Page

Search by: ID | Name | Date | Parm | Value | Avg | % Avg
Sort by: ID | Name | Date | Parm | Value | Avg | % Avg

Enter search or view all records.

Click on id for station plot
#IDNameDateParmValueAvg% Avg
0BULO3BULLY CREEK-BULLY CREEK DAM01-18-2022INFLOW (KAF)105186
1RIDI1WILLOW CREEK-RIRIE DAM01-18-2022INFLOW (KAF)4632146
2HWRI1BIG LOST-AT HOWELL RANCH NEAR CHILLY01-18-2022DISCHARGE (KAF)233565
3LWRI1LITTLE WOOD-LITTLE WOOD DAM01-18-2022INFLOW (KAF)4235122
4MACI1BIG LOST-MACKAY RESERVOIR NEAR MACKAY01-18-2022INFLOW (KAF)293878
5MYKO3MCKAY CREEK-NEAR PILOT ROCK01-18-2022DISCHARGE (KAF)394489
6BERO3MALHEUR-AGENCY VALLEY DAM01-18-2022INFLOW (KAF)384584
7MILI1SNAKE-AT MILNER01-18-2022DISCHARGE (KAF)M54M
8DEDI1DEADWOOD-NEAR LOWMAN01-18-2022INFLOW (KAF)405573
9DLGM8CLARK FORK-AT DEER LODGE01-18-2022DISCHARGE (KAF)465880
10BUDW1BUMPING-BUMPING LAKE DAM01-18-2022INFLOW (KAF)7262116
11ARDW1ENTIAT-NEAR ARDENVOIR01-18-2022DISCHARGE (KAF)7666116
12PIHI1PORTNEUF-AT POCATELLO01-18-2022DISCHARGE (KAF)697295
13WRMO3MALHEUR-WARM SPRINGS DAM01-18-2022INFLOW (KAF)537571
14KADW1KACHESS-KACHESS DAM01-18-2022INFLOW (KAF)9379118
15HALI1BIG WOOD-AT HAILEY01-18-2022DISCHARGE (KAF)448055
16KEDW1YAKIMA-KEECHELUS LAKE01-18-2022INFLOW (KAF)10584126
17GIBO3UMATILLA-NEAR GIBBON01-18-2022DISCHARGE (KAF)9388106
18HOTI1BRUNEAU-NEAR HOT SPRINGS01-18-2022DISCHARGE (KAF)689274
19MAGI1BIG WOOD-MAGIC DAM01-18-2022INFLOW (KAF)669668
20RCCM8ROCK CREEK-NEAR CLINTON01-18-2022DISCHARGE (KAF)689969
21EASW1YAKIMA-AT EASTON01-18-2022DISCHARGE (KAF)11899119
22RILW1TIETON-RIMROCK LAKE NEAR RIMROCK01-18-2022INFLOW (KAF)112112100
23TNAW1TEANAWAY-BELOW FORKS01-18-2022DISCHARGE (KAF)148114130
24SATI1ST MARIES-NEAR SANTA01-18-2022DISCHARGE (KAF)12113093
25IPDI1HENRYS FORK-ISLAND PARK DAM01-18-2022INFLOW (KAF)11913588
26BIGI1BOISE-AT GLENWOOD BRIDGE01-18-2022DISCHARGE (KAF)291140208
27TEAI1TETON-NEAR ST. ANTHONY01-18-2022DISCHARGE (KAF)11915079
28STRM8ST. REGIS-NEAR ST. REGIS01-18-2022DISCHARGE (KAF)13815788
29DRMM8CLARK FORK-NR DRUMMOND01-18-2022DISCHARGE (KAF)11415872
30UMAO3UMATILLA-NEAR UMATILLA01-18-2022DISCHARGE (KAF)223182123
31CHEI1FALL RIVER-NEAR CHESTER01-18-2022DISCHARGE (KAF)16918492
32PDTO3UMATILLA-AT PENDLETON01-18-2022DISCHARGE (KAF)231203114
33CLUW1CLE ELUM-CLE ELUM LAKE01-18-2022INFLOW (KAF)245211116
34PARI1BOISE-NEAR PARMA01-18-2022DISCHARGE (KAF)407221184
35CLFW1NACHES-NEAR CLIFFDEL01-18-2022DISCHARGE (KAF)21623293
36ARAI1SF BOISE-ANDERSON RANCH DAM01-18-2022INFLOW (KAF)238232102
37TCHW1WALLA WALLA-NEAR TOUCHET01-18-2022DISCHARGE (KAF)18523280
38OWYO3OWYHEE-OWYHEE DAM01-18-2022INFLOW (KAF)354248143
39JLKW4SNAKE-JACKSON LAKE AT DAM01-18-2022INFLOW (KAF)18125272
40CSDI1NF PAYETTE-CASCADE DAM01-18-2022INFLOW (KAF)22125985
41HODO3HOOD-NEAR TUCKER BRIDGE01-18-2022DISCHARGE (KAF)329270122
42PATW1METHOW-NEAR PATEROS01-18-2022DISCHARGE (KAF)351332106
43NACW1NACHES-NEAR NACHES01-18-2022DISCHARGE (KAF)30333391
44UNDW1WHITE SALMON-NEAR UNDERWOOD01-18-2022DISCHARGE (KAF)358337106
45BONM8BLACKFOOT-NEAR BONNER01-18-2022DISCHARGE (KAF)27435877
46WSRI1WEISER-NEAR WEISER01-18-2022DISCHARGE (KAF)368360102
47CHDW1CHELAN-LAKE CHELAN DAM01-18-2022INFLOW (KAF)38141891
48BITM8BITTERROOT-NEAR MISSOULA01-18-2022DISCHARGE (KAF)35445777
49PRTI1PRIEST-NEAR PRIEST RIVER01-18-2022DISCHARGE (KAF)41847588
50ANTI1HENRYS FORK-AT ST. ANTHONY01-18-2022DISCHARGE (KAF)41948287
51PITW1KLICKITAT-NEAR PITT01-18-2022DISCHARGE (KAF)514484106
52JKSW4SNAKE-NEAR JACKSON01-18-2022DISCHARGE (KAF)35949073
53MONO3NF JOHN DAY-AT MONUMENT01-18-2022DISCHARGE (KAF)41151380
54UMTW1YAKIMA-AT UMTANUM01-18-2022DISCHARGE (KAF)560514109
55REXI1HENRYS FORK-AT REXBURG01-18-2022DISCHARGE (KAF)45552287
56WGCM8MF FLATHEAD-NEAR WEST GLACIER01-18-2022DISCHARGE (KAF)35753367
57FCFM8NF FLATHEAD-NEAR COLUMBIA FALLS01-18-2022DISCHARGE (KAF)586560105
58LUCI1BOISE-LUCKY PEAK DAM01-18-2022INFLOW (KAF)680599113
59ALPW4SNAKE-NEAR ALPINE01-18-2022DISCHARGE (KAF)50863580
60ABOM8CLARK FORK-ABOVE MISSOULA01-18-2022DISCHARGE (KAF)47965273
61PESW1WENATCHEE-AT PESHASTIN01-18-2022DISCHARGE (KAF)664652102
62TONW1OKANOGAN-NEAR TONASKET01-18-2022DISCHARGE (KAF)783653120
63PARW1YAKIMA-NEAR PARKER01-18-2022DISCHARGE (KAF)66167997
64EMMI1PAYETTE-NEAR EMMETT01-18-2022DISCHARGE (KAF)63471089
65SERO3JOHN DAY-AT SERVICE CK01-18-2022DISCHARGE (KAF)54974074
66HHWM8SF FLATHEAD-HUNGRY HORSE DAM01-18-2022INFLOW (KAF)65477085
67BFTI1SNAKE-NEAR BLACKFOOT01-18-2022DISCHARGE (KAF)979795123
68SNAI1SNAKE-AT BLACKFOOT01-18-2022DISCHARGE (KAF)992800124
69LAUW1KETTLE-AT LAURIER01-18-2022DISCHARGE (KAF)70684683
70KIOW1YAKIMA-AT KIONA01-18-2022DISCHARGE (KAF)97399098
71TRYO3GRANDE RONDE-TROY01-18-2022DISCHARGE (KAF)94099994
72HEII1SNAKE-NEAR HEISE01-18-2022DISCHARGE (KAF)11151025109
73SHYI1SNAKE-NEAR SHELLEY01-18-2022DISCHARGE (KAF)11531046110
74PLDI1SF SNAKE-PALISADES DAM01-18-2022INFLOW (KAF)836106778
75SIFI1SNAKE-AB EAGLE ROCK NR IDAHO FALLS01-18-2022DISCHARGE (KAF)12141076113
76BELM8CLARK FORK-BELOW MISSOULA01-18-2022DISCHARGE (KAF)832113673
77AFRI1SNAKE-AMERICAN FALLS RESERVOIR01-18-2022INFLOW (KAF)15841445110
78MODO3DESCHUTES-AT MOODY NR BIGGS01-18-2022DISCHARGE (KAF)14901471101
79SRGM8CLARK FORK-AT ST REGIS01-18-2022DISCHARGE (KAF)1154153675
80LYDM8KOOTENAI-LIBBY DAM01-18-2022INFLOW (KAF)16871648102
81DWRI1NF CLEARWATER-DWORSHAK DAM01-18-2022INFLOW (KAF)20491721119
82SWAI1SNAKE-BELOW SWAN FALLS01-18-2022DISCHARGE (KAF)1734188392
83CFMM8FLATHEAD-AT COLUMBIA FALLS01-18-2022DISCHARGE (KAF)19891951102
84LEOI1KOOTENAI-AT LEONIA01-18-2022DISCHARGE (KAF)37112165171
85COEI1COEUR D ALENE-COEUR D ALENE LAKE01-18-2022INFLOW (KAF)25082276110
86SPOW1SPOKANE-AT SPOKANE01-18-2022DISCHARGE (KAF)23322307101
87WHBI1SALMON-AT WHITEBIRD01-18-2022DISCHARGE (KAF)1625234969
88ORFI1CLEARWATER-AT OROFINO01-18-2022DISCHARGE (KAF)26362498106
89KERM8FLATHEAD-SELI’Š KSANKA QLISPE’ DAM01-18-2022INFLOW (KAF)2187253086
90LLKW1SPOKANE-AT LONGLAKE01-18-2022INFLOW (KAF)26602641101
91WEII1SNAKE-AT WEISER01-18-2022DISCHARGE (KAF)3423358695
92BRNI1SNAKE-BROWNLEE DAM01-18-2022INFLOW (KAF)3825396197
93SPDI1CLEARWATER-AT SPALDING01-18-2022DISCHARGE (KAF)52824171127
94NOXM8CLARK FORK-NOXON RAPIDS DAM01-18-2022INFLOW (KAF)3594436682
95CABI1CLARK FORK-CABINET GORGE DAM01-18-2022INFLOW (KAF)4009499980
96ALFW1PEND OREILLE-ALBENI FALLS DAM01-18-2022INFLOW (KAF)5014593185
97ANAW1SNAKE-NEAR ANATONE01-18-2022DISCHARGE (KAF)6474844477
98LGDW1SNAKE-LOWER GRANITE DAM01-18-2022INFLOW (KAF)117561295791
99LGSW1SNAKE-LITTLE GOOSE DAM01-18-2022INFLOW (KAF)117581300690
100LMNW1SNAKE-LOWER MONUMENTAL DAM01-18-2022INFLOW (KAF)121601318792
101IHDW1SNAKE-ICE HARBOR DAM01-18-2022INFLOW (KAF)121671320392
102CIBW1COLUMBIA-AT INTL BOUNDARY01-18-2022DISCHARGE (KAF)2356119648120
103GCDW1COLUMBIA-GRAND COULEE DAM01-18-2022INFLOW (KAF)2696622876118
104CHJW1COLUMBIA-CHIEF JOSEPH DAM01-18-2022INFLOW (KAF)2886325457113
105WELW1COLUMBIA-WELLS DAM01-18-2022INFLOW (KAF)2996726658112
106RRHW1COLUMBIA-ROCKY REACH DAM01-18-2022INFLOW (KAF)3042527171112
107WANW1COLUMBIA-WANAPUM DAM01-18-2022INFLOW (KAF)3109528046111
108PRWW1COLUMBIA-PRIEST RAPIDS DAM01-18-2022INFLOW (KAF)3108828123111
109MCDW1COLUMBIA-MCNARY DAM01-18-2022INFLOW (KAF)4428142457104
110JDAO3COLUMBIA-JOHN DAY DAM01-18-2022INFLOW (KAF)4621144517104
111TDAO3COLUMBIA-THE DALLES DAM01-18-2022INFLOW (KAF)4672445045104
112BONO3COLUMBIA-BONNEVILLE DAM01-18-2022INFLOW (KAF)4792947069102
113BFEI1KOOTENAI-AT BONNERS FERRY01-18-2022STAGE (FT)MMM
114HOPI1PEND OREILLE-PEND OREILLE LAKE NR HOPE01-18-2022LAKE ELEVATION (FT)MMM
115SJMI1ST JOE-AT ST MARIES01-18-2022STAGE (FT)MMM